Weather History for Toledo, OH

Change the Weather History Date:

Tuesday, January 22, 2013

  Actual Average Record
Temperature  
Mean Temperature 6 °F 25 °F  
Max Temperature 11 °F 33 °F 65 °F (1933)
Min Temperature 1 °F 18 °F -12 °F (1936)
Degree Days  
Heating Degree Days 59 40  
Month to date heating degree days 800 871  
Since 1 July heating degree days 3051 3196  
Cooling Degree Days 0 0  
Month to date cooling degree days 0 0  
Year to date cooling degree days 0 0  
Moisture  
Dew Point -1 °F    
Average Humidity 72    
Maximum Humidity 87    
Minimum Humidity 57    
Precipitation  
Precipitation 0.02 in 0.06 in 1.07 in (1965)
Month to date precipitation 2.79 1.50  
Year to date precipitation 2.79 1.50  
Snow  
Snow 0.40 in 0.40 in - ()
Month to date snowfall 0.6 8.1  
Since 1 July snowfall 7.6 17.6  
Snow Depth T in    
Sea Level Pressure  
Sea Level Pressure 30.24 in    
Wind  
Wind Speed 10 mph (WNW)    
Max Wind Speed 21 mph    
Max Gust Speed 24 mph    
Visibility 4 miles    
Events Snow    
T = Trace of Precipitation, MM = Missing Value Source: NWS Daily Summary

Daily Weather History Graph

Daily Weather History Graph

Search for Another Location

Airport:

Trip Planner

Search our weather history database for the weather conditions in past years. The results will help you decide how hot, cold, wet, or windy it might be!

Date:

Astronomy

Jan. 22, 2013 Rise Set
Actual Time 7:55 AM EST 5:38 PM EST
Civil Twilight 7:25 AM EST 6:08 PM EST
Nautical Twilight 6:51 AM EST 6:42 PM EST
Astronomical Twilight 6:18 AM EST 7:15 PM EST
Moon 2:00 PM EST (1/22) 4:16 AM EST (1/22)
Length of Visible Light 10h 43m
Length of Day
9h 43m
Waxing Gibbous, 82% of the Moon is Illuminated
Jan 22
Waxing Gibbous
Jan 26
Full
Feb 3
Last Quarter
Feb 10
New
Feb 17
First Quarter

Hourly Weather History & Observations

Time (EST) Temp. Windchill Dew Point Humidity Pressure Visibility Wind Dir Wind Speed Gust Speed Precip Events Conditions
12:30 AM 8.6 °F -8.3 °F 3.2 °F 79% 30.12 in 6.0 mi WSW 15.0 mph - 0.00 in   Haze
12:52 AM 8.1 °F -9.6 °F 3.0 °F 80% 30.16 in 3.0 mi WSW 16.1 mph - 0.00 in Snow Light Snow
1:10 AM 8.6 °F -7.7 °F 3.2 °F 79% 30.12 in 2.5 mi West 13.8 mph - 0.00 in Snow Light Snow
1:20 AM 8.6 °F -8.9 °F 3.2 °F 79% 30.12 in 1.5 mi WSW 16.1 mph - 0.00 in Snow Light Snow
1:45 AM 8.6 °F -5.5 °F 3.2 °F 79% 30.13 in 1.2 mi WNW 10.4 mph - 0.00 in Snow Light Snow
1:52 AM 8.1 °F -7.7 °F 3.9 °F 83% 30.17 in 0.8 mi NW 12.7 mph - 0.01 in Snow Light Snow
2:02 AM 6.8 °F -6.9 °F 3.2 °F 85% 30.13 in 0.8 mi WNW 9.2 mph - 0.00 in Snow Light Snow
2:04 AM 6.8 °F -5.9 °F 3.2 °F 85% 30.13 in 1.0 mi WNW 8.1 mph - 0.00 in Snow Light Snow
2:10 AM 6.8 °F -8.6 °F 3.2 °F 85% 30.14 in 2.0 mi NW 11.5 mph - 0.00 in Snow Light Snow
2:22 AM 6.8 °F -8.6 °F 1.4 °F 79% 30.14 in 2.5 mi NW 11.5 mph - 0.00 in Snow Light Snow
2:50 AM 6.8 °F -6.9 °F 1.4 °F 79% 30.15 in 5.0 mi NW 9.2 mph - 0.00 in Snow Light Snow
2:52 AM 7.0 °F -6.6 °F 1.0 °F 77% 30.19 in 4.0 mi NW 9.2 mph - 0.00 in Snow Light Snow
3:01 AM 6.8 °F -4.8 °F 1.4 °F 79% 30.15 in 2.0 mi WNW 6.9 mph - 0.00 in Snow Light Snow
3:19 AM 6.8 °F -4.8 °F 1.4 °F 79% 30.16 in 3.0 mi NW 6.9 mph - 0.01 in Snow Light Snow
3:31 AM 6.8 °F -4.8 °F -0.4 °F 72% 30.16 in 5.0 mi WNW 6.9 mph - 0.01 in Snow Light Snow
3:52 AM 5.0 °F -6.9 °F -0.9 °F 76% 30.21 in 10.0 mi NW 6.9 mph - 0.01 in   Mostly Cloudy
4:15 AM 5.0 °F -5.6 °F -0.4 °F 78% 30.17 in 2.5 mi NNW 5.8 mph - 0.00 in Snow Light Snow
4:24 AM 5.0 °F -5.6 °F -0.4 °F 78% 30.17 in 3.0 mi NNW 5.8 mph - 0.00 in Snow Light Snow
4:39 AM 3.2 °F -4.2 °F -0.4 °F 85% 30.18 in 3.0 mi NW 3.5 mph - 0.00 in Snow Light Snow
4:52 AM 3.9 °F -6.9 °F -0.9 °F 80% 30.22 in 3.0 mi NW 5.8 mph - 0.00 in Snow Light Snow
5:15 AM 3.2 °F -9.1 °F -0.4 °F 85% 30.19 in 2.0 mi NW 6.9 mph - 0.00 in Snow Light Snow
5:30 AM 3.2 °F -10.3 °F -0.4 °F 85% 30.20 in 1.8 mi NW 8.1 mph - 0.00 in Snow Light Snow
5:37 AM 3.2 °F -9.1 °F -0.4 °F 85% 30.20 in 2.0 mi NW 6.9 mph - 0.00 in Snow Light Snow
5:52 AM 3.9 °F -9.4 °F -0.9 °F 80% 30.25 in 1.8 mi NNW 8.1 mph - 0.00 in Snow Light Snow
6:08 AM 3.2 °F -13.1 °F -0.4 °F 85% 30.21 in 1.2 mi NNW 11.5 mph - 0.00 in Snow Light Snow
6:13 AM 3.2 °F -10.3 °F -2.2 °F 78% 30.21 in 2.0 mi NNW 8.1 mph - 0.00 in Snow Light Snow
6:22 AM 3.2 °F -10.3 °F -2.2 °F 78% 30.22 in 3.0 mi NNW 8.1 mph - 0.00 in Snow Light Snow
6:34 AM 1.4 °F -14.5 °F -2.2 °F 85% 30.23 in 2.0 mi NNW 10.4 mph - 0.00 in Snow Light Snow
6:52 AM 1.9 °F -11.8 °F -2.9 °F 80% 30.28 in 2.5 mi NNW 8.1 mph - 0.00 in Snow Light Snow
6:59 AM 1.4 °F -13.5 °F -4.0 °F 78% 30.24 in 3.0 mi NNW 9.2 mph - 0.00 in Snow Light Snow
7:52 AM 1.0 °F -11.7 °F -9.0 °F 63% 30.31 in 9.0 mi NW 6.9 mph - 0.00 in   Overcast
8:52 AM 1.9 °F -5.6 °F -6.0 °F 69% 30.32 in 10.0 mi WNW 3.5 mph - N/A   Overcast
9:52 AM 3.0 °F -4.4 °F -5.1 °F 69% 30.34 in 3.0 mi WNW 3.5 mph - 0.00 in Snow Light Snow
10:30 AM 3.2 °F -4.2 °F -2.2 °F 78% 30.30 in 2.0 mi Variable 3.5 mph - 0.00 in Snow Light Snow
10:43 AM 3.2 °F -7.8 °F -2.2 °F 78% 30.30 in 4.0 mi NW 5.8 mph - 0.00 in Snow Light Snow
10:52 AM 5.0 °F -5.6 °F -2.0 °F 73% 30.35 in 4.0 mi Variable 5.8 mph - 0.00 in Snow Light Snow
11:12 AM 6.8 °F -5.9 °F -2.2 °F 67% 30.30 in 6.0 mi West 8.1 mph - 0.00 in Snow Light Snow
11:52 AM 7.0 °F -9.8 °F -2.0 °F 67% 30.34 in 9.0 mi West 13.8 mph 18.4 mph 0.00 in   Overcast
12:30 PM 8.6 °F -8.3 °F 1.4 °F 73% 30.28 in 7.0 mi WSW 15.0 mph - N/A   Overcast
12:52 PM 9.0 °F -6.6 °F -0.9 °F 64% 30.31 in 3.0 mi West 12.7 mph - 0.00 in Snow Light Snow
1:05 PM 8.6 °F -8.9 °F -0.4 °F 67% 30.26 in 1.8 mi WSW 16.1 mph - 0.00 in Snow Light Snow
1:14 PM 8.6 °F -7.0 °F 1.4 °F 73% 30.26 in 1.0 mi West 12.7 mph - 0.00 in Snow Light Snow
1:27 PM 10.4 °F -6.0 °F -0.4 °F 62% 30.25 in 2.0 mi West 15.0 mph - 0.00 in Snow Light Snow
1:36 PM 8.6 °F -7.7 °F 1.4 °F 73% 30.25 in 5.0 mi West 13.8 mph - 0.00 in   Overcast
1:52 PM 9.0 °F -8.5 °F -0.0 °F 67% 30.29 in 3.0 mi West 16.1 mph - 0.00 in Snow Light Snow
2:13 PM 10.4 °F -7.7 °F -0.4 °F 62% 30.25 in 9.0 mi West 18.4 mph 24.2 mph 0.00 in   Overcast
2:52 PM 9.0 °F -8.5 °F -0.0 °F 67% 30.31 in 5.0 mi West 16.1 mph - 0.00 in   Haze
3:02 PM 8.6 °F -6.3 °F 1.4 °F 73% 30.26 in 2.0 mi West 11.5 mph - 0.00 in Snow Light Snow
3:11 PM 10.4 °F -6.6 °F -0.4 °F 62% 30.26 in 5.0 mi West 16.1 mph 19.6 mph 0.00 in Snow Light Snow
3:52 PM 10.0 °F -7.6 °F -2.0 °F 58% 30.31 in 10.0 mi West 17.3 mph - 0.00 in   Mostly Cloudy
4:52 PM 9.0 °F -6.6 °F -2.9 °F 59% 30.30 in 10.0 mi West 12.7 mph - N/A   Mostly Cloudy
5:52 PM 8.1 °F -9.0 °F -4.0 °F 58% 30.32 in 10.0 mi West 15.0 mph - N/A   Partly Cloudy
6:52 PM 8.1 °F -7.7 °F -4.0 °F 58% 30.34 in 10.0 mi West 12.7 mph - N/A   Clear
7:52 PM 7.0 °F -7.5 °F -4.0 °F 61% 30.34 in 10.0 mi West 10.4 mph - N/A   Clear
8:52 PM 3.9 °F -5.3 °F -5.1 °F 66% 30.33 in 10.0 mi West 4.6 mph - N/A   Clear
9:52 PM 3.0 °F -6.4 °F -5.1 °F 69% 30.33 in 10.0 mi SW 4.6 mph - N/A   Clear
10:52 PM 3.0 °F -8.0 °F -5.1 °F 69% 30.32 in 10.0 mi WSW 5.8 mph - N/A   Clear
11:52 PM 3.0 °F -6.4 °F -5.1 °F 69% 30.34 in 10.0 mi WSW 4.6 mph - N/A   Clear